| time (UTC) | temp C | wind direction | speed KPH | gust KPH | rain 1hr cm | rain 24hr cm | rain mn cm | humidity % | barometer mb |
| 20260507064521 | 4 | 307 | 0.0 | 3.2 | 0.00 | 1.35 | 0.00 | 89 | 1011.5 |
| 20260507064021 | 4 | 307 | 0.0 | 3.2 | 0.00 | 1.35 | 0.00 | 89 | 1011.5 |
| 20260507063521 | 4 | 307 | 0.0 | 4.8 | 0.00 | 1.35 | 0.00 | 89 | 1011.6 |
| 20260507063021 | 4 | 307 | 0.0 | 8.0 | 0.00 | 1.35 | 0.00 | 89 | 1011.7 |
| 20260507062523 | 4 | 307 | 3.2 | 8.0 | 0.00 | 1.35 | 0.00 | 89 | 1011.7 |
| 20260507062021 | 4 | 313 | 1.6 | 4.8 | 0.00 | 1.35 | 0.00 | 89 | 1011.7 |
| 20260507061522 | 4 | 313 | 0.0 | 8.0 | 0.00 | 1.37 | 0.00 | 89 | 1011.8 |
| 20260507061020 | 4 | 313 | 1.6 | 8.0 | 0.00 | 1.37 | 0.00 | 89 | 1012.0 |
| 20260507060521 | 4 | 302 | 1.6 | 6.4 | 0.00 | 1.37 | 0.00 | 89 | 1011.8 |
| 20260507060257 | 4 | 292 | 0.0 | 3.2 | 0.00 | 1.37 | 0.00 | 89 | 1011.5 |
| 20260507055521 | 4 | 274 | 0.0 | 1.6 | 0.00 | 1.37 | 0.00 | 89 | 1011.4 |
| 20260507055022 | 4 | 274 | 0.0 | 1.6 | 0.00 | 1.37 | 0.00 | 88 | 1011.6 |
| 20260507054521 | 4 | 274 | 0.0 | 1.6 | 0.00 | 1.37 | 0.00 | 88 | 1011.7 |
| 20260507054258 | 4 | 274 | 0.0 | 1.6 | 0.00 | 1.37 | 0.00 | 88 | 1011.7 |
| 20260507053522 | 4 | 274 | 0.0 | 3.2 | 0.00 | 1.37 | 0.00 | 88 | 1011.7 |
| 20260507053021 | 4 | 274 | 1.6 | 3.2 | 0.00 | 1.37 | 0.00 | 88 | 1011.9 |
| 20260507052756 | 5 | 274 | 0.0 | 1.6 | 0.00 | 1.37 | 0.00 | 88 | 1011.8 |
| 20260507052021 | 5 | 274 | 0.0 | 1.6 | 0.00 | 1.37 | 0.00 | 88 | 1011.8 |
| 20260507051521 | 5 | 274 | 0.0 | 1.6 | 0.00 | 1.37 | 0.00 | 88 | 1011.7 |
| 20260507051021 | 5 | 274 | 0.0 | 1.6 | 0.00 | 1.37 | 0.00 | 88 | 1011.7 |
| 20260507050801 | 5 | 274 | 0.0 | 6.4 | 0.00 | 1.37 | 0.00 | 87 | 1011.8 |
| 20260507050043 | 5 | 302 | 1.6 | 6.4 | 0.00 | 1.37 | 0.00 | 87 | 1011.8 |
| 20260507050035 | 5 | 274 | 0.0 | 6.4 | 0.00 | 1.37 | 0.00 | 87 | 1011.8 |
| 20260507045021 | 5 | 302 | 3.2 | 8.0 | 0.00 | 1.37 | 0.00 | 87 | 1011.9 |
| 20260507044757 | 5 | 302 | 4.8 | 11.3 | 0.00 | 1.37 | 0.00 | 87 | 1011.8 |
| 20260507044228 | 5 | 281 | 6.4 | 11.3 | 0.00 | 1.37 | 0.00 | 86 | 1011.8 |
| 20260507043020 | 5 | 296 | 4.8 | 9.7 | 0.00 | 1.37 | 0.00 | 87 | 1011.8 |
| 20260507043012 | 5 | 300 | 6.4 | 11.3 | 0.00 | 1.37 | 0.00 | 87 | 1011.7 |
| 20260507041521 | 5 | 298 | 6.4 | 11.3 | 0.00 | 1.37 | 0.00 | 87 | 1011.7 |
| 20260507041021 | 5 | 269 | 9.7 | 11.3 | 0.00 | 1.37 | 0.00 | 87 | 1011.7 |
| 20260507040754 | 5 | 303 | 4.8 | 9.7 | 0.00 | 1.37 | 0.00 | 87 | 1011.6 |
| 20260507040022 | 5 | 293 | 4.8 | 8.0 | 0.00 | 1.37 | 0.00 | 87 | 1011.7 |
| 20260507035757 | 5 | 278 | 3.2 | 9.7 | 0.00 | 1.37 | 1.37 | 87 | 1011.6 |
| 20260507035254 | 5 | 288 | 6.4 | 9.7 | 0.00 | 1.37 | 1.37 | 86 | 1011.7 |
| 20260507034521 | 5 | 278 | 4.8 | 9.7 | 0.00 | 1.37 | 1.37 | 86 | 1011.5 |
| 20260507034021 | 5 | 282 | 6.4 | 9.7 | 0.00 | 1.37 | 1.37 | 85 | 1011.4 |
| 20260507033543 | 5 | 275 | 4.8 | 9.7 | 0.00 | 1.37 | 1.37 | 84 | 1011.2 |
| 20260507033535 | 5 | 275 | 3.2 | 9.7 | 0.00 | 1.37 | 1.37 | 85 | 1011.3 |
| 20260507032520 | 5 | 271 | 4.8 | 17.7 | 0.00 | 1.37 | 1.37 | 84 | 1011.0 |
| 20260507032021 | 5 | 282 | 6.4 | 17.7 | 0.00 | 1.37 | 1.37 | 83 | 1010.9 |
| 20260507031759 | 6 | 252 | 8.0 | 16.1 | 0.00 | 1.37 | 1.37 | 83 | 1010.9 |
| 20260507030520 | 6 | 265 | 6.4 | 19.3 | 0.00 | 1.37 | 1.37 | 84 | 1010.9 |
| 20260507030024 | 6 | 310 | 6.4 | 20.9 | 0.00 | 1.37 | 1.37 | 84 | 1010.9 |
| 20260507030020 | 6 | 276 | 9.7 | 20.9 | 0.00 | 1.37 | 1.37 | 85 | 1011.2 |
| 20260507025022 | 6 | 298 | 6.4 | 20.9 | 0.00 | 1.37 | 1.37 | 86 | 1011.1 |
| 20260507024753 | 6 | 288 | 12.9 | 25.7 | 0.00 | 1.37 | 1.37 | 87 | 1011.2 |
| 20260507024302 | 6 | 288 | 14.5 | 25.7 | 0.00 | 1.37 | 1.37 | 88 | 1011.1 |
| 20260507023521 | 6 | 292 | 9.7 | 24.1 | 0.00 | 1.37 | 1.37 | 89 | 1011.2 |
| 20260507023021 | 6 | 312 | 9.7 | 25.7 | 0.00 | 1.37 | 1.37 | 90 | 1011.2 |
| 20260507022523 | 6 | 272 | 14.5 | 25.7 | 0.00 | 1.37 | 1.37 | 91 | 1011.2 |
| 20260507022021 | 6 | 289 | 9.7 | 19.3 | 0.00 | 1.37 | 1.37 | 93 | 1011.3 |
| 20260507021556 | 7 | 300 | 8.0 | 20.9 | 0.00 | 1.37 | 1.37 | 94 | 1011.3 |
| 20260507021544 | 6 | 275 | 11.3 | 19.3 | 0.00 | 1.37 | 1.37 | 93 | 1011.3 |
| 20260507020510 | 7 | 295 | 14.5 | 24.1 | 0.00 | 1.37 | 1.37 | 94 | 1011.2 |
| 20260507015520 | 7 | 285 | 8.0 | 22.5 | 0.00 | 1.37 | 1.37 | 94 | 1011.1 |
| 20260507015020 | 7 | 285 | 6.4 | 8.0 | 0.00 | 1.37 | 1.37 | 94 | 1011.5 |
| 20260507014521 | 7 | 269 | 3.2 | 6.4 | 0.00 | 1.37 | 1.37 | 94 | 1011.3 |
| 20260507014020 | 7 | 269 | 3.2 | 6.4 | 0.00 | 1.37 | 1.37 | 93 | 1011.2 |
| 20260507013521 | 7 | 269 | 3.2 | 6.4 | 0.00 | 1.37 | 1.37 | 93 | 1011.3 |
| 20260507013021 | 7 | 269 | 3.2 | 6.4 | 0.00 | 1.37 | 1.37 | 93 | 1011.2 |
| 20260507012521 | 7 | 269 | 3.2 | 8.0 | 0.00 | 1.37 | 1.37 | 93 | 1011.1 |
| 20260507012021 | 7 | 250 | 4.8 | 8.0 | 0.00 | 1.37 | 1.37 | 93 | 1011.4 |
| 20260507011521 | 7 | 266 | 4.8 | 6.4 | 0.00 | 1.37 | 1.37 | 93 | 1011.4 |
| 20260507011020 | 7 | 266 | 1.6 | 6.4 | 0.00 | 1.37 | 1.37 | 93 | 1011.1 |
| 20260507010521 | 7 | 266 | 1.6 | 6.4 | 0.00 | 1.37 | 1.37 | 93 | 1011.2 |
| 20260507010021 | 7 | 274 | 1.6 | 4.8 | 0.00 | 1.37 | 1.37 | 92 | 1011.2 |
| 20260507005522 | 7 | 258 | 0.0 | 3.2 | 0.00 | 1.37 | 1.37 | 92 | 1011.1 |
| 20260507005040 | 7 | 258 | 0.0 | 0.0 | 0.00 | 1.37 | 1.37 | 92 | 1011.0 |
| 20260507005032 | 7 | 258 | 0.0 | 0.0 | 0.00 | 1.37 | 1.37 | 92 | 1011.0 |
| 20260507004020 | 7 | 258 | 0.0 | 0.0 | 0.00 | 1.37 | 1.37 | 92 | 1011.0 |
| 20260507003520 | 7 | 258 | 0.0 | 0.0 | 0.00 | 1.37 | 1.37 | 92 | 1011.0 |
| 20260507003021 | 7 | 282 | 0.0 | 0.0 | 0.00 | 1.37 | 1.37 | 92 | 1010.9 |
| 20260507002521 | 7 | 282 | 0.0 | 0.0 | 0.00 | 1.37 | 1.37 | 92 | 1010.8 |
| 20260507002020 | 7 | 282 | 0.0 | 0.0 | 0.00 | 1.37 | 1.37 | 92 | 1010.5 |
| 20260507001521 | 7 | 282 | 0.0 | 1.6 | 0.00 | 1.37 | 1.37 | 92 | 1010.6 |
| 20260507001022 | 7 | 282 | 0.0 | 1.6 | 0.00 | 1.37 | 1.37 | 92 | 1010.5 |
| 20260507000544 | 7 | 282 | 0.0 | 1.6 | 0.00 | 1.37 | 1.37 | 92 | 1010.5 |
| 20260507000536 | 7 | 282 | 0.0 | 1.6 | 0.00 | 1.37 | 1.37 | 92 | 1010.6 |
| 20260506235521 | 7 | 282 | 0.0 | 1.6 | 0.00 | 1.37 | 1.37 | 92 | 1010.5 |
| 20260506235021 | 7 | 282 | 0.0 | 1.6 | 0.00 | 1.37 | 1.37 | 92 | 1010.5 |
| 20260506234541 | 7 | 282 | 0.0 | 0.0 | 0.00 | 1.37 | 1.37 | 92 | 1010.1 |
| 20260506234535 | 7 | 282 | 0.0 | 0.0 | 0.00 | 1.37 | 1.37 | 92 | 1010.2 |
| 20260506233755 | 7 | 282 | 0.0 | 0.0 | 0.00 | 1.37 | 1.37 | 92 | 1010.1 |
| 20260506233254 | 7 | 282 | 0.0 | 0.0 | 0.00 | 1.37 | 1.37 | 92 | 1010.2 |
| 20260506232520 | 7 | 282 | 0.0 | 0.0 | 0.00 | 1.37 | 1.37 | 92 | 1010.1 |
| 20260506232020 | 7 | 282 | 0.0 | 4.8 | 0.00 | 1.37 | 1.37 | 92 | 1010.1 |
| 20260506231758 | 7 | 282 | 0.0 | 4.8 | 0.00 | 1.37 | 1.37 | 92 | 1010.1 |
| 20260506231021 | 7 | 266 | 0.0 | 0.0 | 0.00 | 1.37 | 1.37 | 92 | 1010.0 |
| 20260506230521 | 7 | 266 | 0.0 | 6.4 | 0.00 | 1.37 | 1.37 | 92 | 1010.2 |
| 20260506230020 | 7 | 266 | 0.0 | 6.4 | 0.00 | 1.37 | 1.37 | 92 | 1010.0 |
| 20260506225521 | 7 | 305 | 1.6 | 6.4 | 0.00 | 1.37 | 1.37 | 92 | 1010.0 |
| 20260506225020 | 8 | 306 | 3.2 | 6.4 | 0.00 | 1.37 | 1.37 | 92 | 1009.9 |
| 20260506224520 | 8 | 6 | 1.6 | 6.4 | 0.00 | 1.37 | 1.37 | 92 | 1009.9 |
| 20260506224020 | 7 | 290 | 1.6 | 6.4 | 0.00 | 1.37 | 1.37 | 92 | 1010.0 |
| 20260506223520 | 7 | 296 | 1.6 | 8.0 | 0.00 | 1.37 | 1.37 | 92 | 1010.0 |
| 20260506223020 | 7 | 300 | 6.4 | 8.0 | 0.00 | 1.37 | 1.37 | 92 | 1009.9 |
| 20260506222755 | 7 | 282 | 1.6 | 4.8 | 0.00 | 1.37 | 1.37 | 92 | 1009.9 |
| 20260506222021 | 7 | 282 | 0.0 | 4.8 | 0.00 | 1.37 | 1.37 | 92 | 1009.8 |
| 20260506221520 | 7 | 305 | 0.0 | 6.4 | 0.00 | 1.37 | 1.37 | 92 | 1009.7 |
| 20260506221020 | 7 | 314 | 3.2 | 6.4 | 0.00 | 1.37 | 1.37 | 92 | 1009.6 |
| 20260506220520 | 7 | 302 | 1.6 | 4.8 | 0.00 | 1.37 | 1.37 | 92 | 1009.8 |
| 20260506220020 | 8 | 319 | 1.6 | 4.8 | 0.00 | 1.37 | 1.37 | 92 | 1009.6 |
| 20260506215520 | 8 | 316 | 0.0 | 6.4 | 0.00 | 1.37 | 1.37 | 92 | 1009.6 |
| 20260506215020 | 8 | 341 | 1.6 | 8.0 | 0.00 | 1.37 | 1.37 | 92 | 1009.7 |
| 20260506214520 | 8 | 305 | 1.6 | 8.0 | 0.00 | 1.40 | 1.37 | 92 | 1009.7 |
| 20260506214020 | 8 | 175 | 0.0 | 6.4 | 0.00 | 1.40 | 1.37 | 92 | 1009.5 |
| 20260506213522 | 8 | 142 | 1.6 | 8.0 | 0.00 | 1.42 | 1.37 | 92 | 1009.3 |
| 20260506213022 | 8 | 286 | 1.6 | 8.0 | 0.00 | 1.45 | 1.37 | 92 | 1009.4 |
| 20260506212520 | 8 | 305 | 0.0 | 8.0 | 0.00 | 1.45 | 1.37 | 93 | 1009.4 |
| 20260506212020 | 8 | 296 | 1.6 | 6.4 | 0.00 | 1.45 | 1.37 | 93 | 1009.4 |
| 20260506211754 | 8 | 307 | 0.0 | 8.0 | 0.00 | 1.45 | 1.37 | 93 | 1009.4 |
| 20260506211020 | 8 | 317 | 1.6 | 11.3 | 0.00 | 1.45 | 1.37 | 93 | 1009.4 |
| 20260506210520 | 8 | 266 | 1.6 | 11.3 | 0.00 | 1.45 | 1.37 | 93 | 1009.3 |
| 20260506210020 | 8 | 271 | 1.6 | 9.7 | 0.00 | 1.45 | 1.37 | 93 | 1009.3 |
| 20260506205520 | 8 | 320 | 3.2 | 11.3 | 0.00 | 1.45 | 1.37 | 94 | 1009.3 |
| 20260506205021 | 8 | 295 | 4.8 | 11.3 | 0.00 | 1.45 | 1.37 | 94 | 1009.2 |
| 20260506204757 | 8 | 276 | 1.6 | 9.7 | 0.00 | 1.45 | 1.37 | 94 | 1009.1 |
| 20260506204020 | 8 | 314 | 3.2 | 9.7 | 0.00 | 1.45 | 1.37 | 94 | 1009.1 |
| 20260506203757 | 8 | 223 | 3.2 | 14.5 | 0.00 | 1.45 | 1.37 | 94 | 1009.1 |
| 20260506203516 | 8 | 310 | 4.8 | 14.5 | 0.00 | 1.45 | 1.37 | 95 | 1009.1 |
| 20260506202749 | 8 | 274 | 3.2 | 9.7 | 0.00 | 1.45 | 1.37 | 94 | 1009.0 |
| 20260506202020 | 8 | 282 | 4.8 | 9.7 | 0.00 | 1.45 | 1.37 | 94 | 1008.9 |
| 20260506201519 | 7 | 305 | 1.6 | 9.7 | 0.00 | 1.45 | 1.37 | 94 | 1008.8 |
| 20260506201257 | 7 | 313 | 3.2 | 9.7 | 0.00 | 1.45 | 1.37 | 94 | 1008.9 |
| 20260506200521 | 7 | 317 | 1.6 | 8.0 | 0.00 | 1.45 | 1.37 | 94 | 1008.8 |
| 20260506200246 | 7 | 298 | 0.0 | 8.0 | 0.00 | 1.45 | 1.37 | 94 | 1008.8 |
| 20260506195756 | 7 | 305 | 3.2 | 8.0 | 0.00 | 1.45 | 1.37 | 94 | 1008.8 |
| 20260506195020 | 7 | 326 | 3.2 | 9.7 | 0.00 | 1.45 | 1.37 | 94 | 1008.8 |
| 20260506194520 | 7 | 323 | 6.4 | 9.7 | 0.00 | 1.45 | 1.37 | 94 | 1008.7 |
| 20260506194021 | 7 | 289 | 3.2 | 11.3 | 0.00 | 1.45 | 1.37 | 94 | 1008.8 |
| 20260506193520 | 7 | 341 | 6.4 | 11.3 | 0.00 | 1.45 | 1.37 | 94 | 1008.7 |
| 20260506193020 | 7 | 307 | 3.2 | 9.7 | 0.00 | 1.45 | 1.37 | 94 | 1008.6 |
| 20260506192755 | 7 | 288 | 3.2 | 9.7 | 0.00 | 1.45 | 1.37 | 94 | 1008.4 |
| 20260506192254 | 7 | 17 | 4.8 | 9.7 | 0.00 | 1.45 | 1.37 | 95 | 1008.2 |
| 20260506191530 | 7 | 354 | 4.8 | 14.5 | 0.00 | 1.45 | 1.37 | 95 | 1008.1 |
| 20260506191520 | 7 | 295 | 4.8 | 14.5 | 0.00 | 1.45 | 1.37 | 95 | 1008.2 |
| 20260506190520 | 7 | 323 | 3.2 | 8.0 | 0.00 | 1.45 | 1.37 | 94 | 1008.5 |
| 20260506190514 | 7 | 279 | 3.2 | 9.7 | 0.00 | 1.45 | 1.37 | 94 | 1008.5 |
| 20260506185520 | 7 | 292 | 6.4 | 9.7 | 0.00 | 1.45 | 1.37 | 94 | 1008.5 |
| 20260506185255 | 7 | 299 | 3.2 | 9.7 | 0.00 | 1.45 | 1.37 | 95 | 1008.4 |
| 20260506184520 | 7 | 227 | 3.2 | 9.7 | 0.00 | 1.45 | 1.37 | 94 | 1008.2 |
| 20260506184020 | 7 | 334 | 4.8 | 9.7 | 0.00 | 1.45 | 1.37 | 95 | 1008.1 |
| 20260506183754 | 7 | 331 | 3.2 | 11.3 | 0.00 | 1.45 | 1.37 | 95 | 1008.1 |
| 20260506183037 | 7 | 344 | 4.8 | 9.7 | 0.03 | 1.47 | 1.37 | 94 | 1008.2 |
| 20260506183031 | 7 | 286 | 6.4 | 11.3 | 0.03 | 1.47 | 1.37 | 94 | 1008.2 |
| 20260506182245 | 7 | 333 | 3.2 | 8.0 | 0.03 | 1.52 | 1.37 | 94 | 1008.2 |
| 20260506181525 | 7 | 305 | 6.4 | 11.3 | 0.03 | 1.70 | 1.37 | 94 | 1008.2 |
| 20260506181521 | 7 | 326 | 4.8 | 11.3 | 0.03 | 1.70 | 1.37 | 94 | 1008.2 |
| 20260506180529 | 7 | 306 | 3.2 | 14.5 | 0.03 | 1.73 | 1.37 | 94 | 1008.2 |
| 20260506180019 | 7 | 312 | 3.2 | 16.1 | 0.03 | 1.73 | 1.37 | 94 | 1008.0 |
| 20260506175521 | 7 | 295 | 6.4 | 16.1 | 0.03 | 1.70 | 1.37 | 94 | 1007.9 |
| 20260506175023 | 7 | 296 | 3.2 | 8.0 | 0.03 | 1.70 | 1.37 | 94 | 1007.9 |
| 20260506174520 | 7 | 319 | 3.2 | 8.0 | 0.05 | 1.70 | 1.37 | 94 | 1007.8 |
| 20260506174300 | 7 | 0 | 1.6 | 11.3 | 0.05 | 1.70 | 1.37 | 94 | 1007.7 |
| 20260506173020 | 7 | 264 | 1.6 | 4.8 | 0.03 | 1.70 | 1.35 | 94 | 1007.4 |
| 20260506172755 | 7 | 274 | 3.2 | 9.7 | 0.03 | 1.70 | 1.35 | 94 | 1007.5 |
| 20260506172042 | 7 | 326 | 1.6 | 9.7 | 0.03 | 1.70 | 1.35 | 94 | 1007.4 |
| 20260506172034 | 7 | 265 | 1.6 | 9.7 | 0.03 | 1.70 | 1.35 | 95 | 1007.4 |
| 20260506171020 | 7 | 341 | 3.2 | 9.7 | 0.05 | 1.70 | 1.35 | 94 | 1007.4 |
| 20260506170755 | 7 | 262 | 1.6 | 11.3 | 0.05 | 1.70 | 1.35 | 94 | 1007.4 |
| 20260506170247 | 7 | 310 | 1.6 | 11.3 | 0.05 | 1.70 | 1.35 | 94 | 1007.4 |
| 20260506165521 | 7 | 317 | 3.2 | 9.7 | 0.05 | 1.65 | 1.35 | 94 | 1007.5 |
| 20260506165020 | 7 | 76 | 3.2 | 11.3 | 0.08 | 1.65 | 1.35 | 94 | 1007.4 |
| 20260506164519 | 7 | 336 | 1.6 | 11.3 | 0.05 | 1.65 | 1.32 | 94 | 1007.4 |
| 20260506164020 | 7 | 354 | 3.2 | 9.7 | 0.05 | 1.65 | 1.32 | 94 | 1007.4 |
| 20260506163754 | 6 | 61 | 3.2 | 11.3 | 0.05 | 1.65 | 1.32 | 94 | 1007.3 |
| 20260506163020 | 6 | 309 | 1.6 | 11.3 | 0.05 | 1.65 | 1.32 | 94 | 1007.5 |
| 20260506162730 | 6 | 334 | 3.2 | 9.7 | 0.05 | 1.65 | 1.32 | 94 | 1007.5 |
| 20260506161520 | 6 | 288 | 1.6 | 11.3 | 0.05 | 1.65 | 1.32 | 94 | 1007.6 |
| 20260506161317 | 6 | 275 | 1.6 | 11.3 | 0.05 | 1.65 | 1.30 | 94 | 1007.4 |
| 20260506161313 | 6 | 240 | 4.8 | 11.3 | 0.05 | 1.65 | 1.30 | 94 | 1007.5 |
| 20260506160253 | 6 | 330 | 3.2 | 11.3 | 0.08 | 1.65 | 1.30 | 94 | 1007.4 |
| 20260506155520 | 6 | 330 | 1.6 | 16.1 | 0.08 | 1.57 | 1.30 | 94 | 1007.4 |
| 20260506155019 | 6 | 300 | 3.2 | 16.1 | 0.08 | 1.57 | 1.27 | 93 | 1007.3 |
| 20260506154519 | 6 | 351 | 3.2 | 8.0 | 0.08 | 1.57 | 1.27 | 93 | 1007.1 |
| 20260506154020 | 6 | 264 | 3.2 | 8.0 | 0.10 | 1.57 | 1.27 | 93 | 1007.1 |
| 20260506153519 | 6 | 354 | 1.6 | 8.0 | 0.15 | 1.57 | 1.27 | 93 | 1006.8 |
| 20260506153058 | 6 | 321 | 3.2 | 9.7 | 0.20 | 1.57 | 1.27 | 93 | 1006.7 |
| 20260506153024 | 6 | 326 | 1.6 | 9.7 | 0.20 | 1.57 | 1.27 | 93 | 1006.8 |
| 20260506151525 | 6 | 185 | 3.2 | 9.7 | 0.23 | 1.57 | 1.24 | 92 | 1006.8 |
| 20260506151521 | 6 | 338 | 4.8 | 9.7 | 0.23 | 1.57 | 1.27 | 92 | 1006.8 |
| 20260506150520 | 6 | 348 | 3.2 | 14.5 | 0.23 | 1.57 | 1.24 | 92 | 1006.7 |
| 20260506150019 | 6 | 7 | 3.2 | 14.5 | 0.23 | 1.57 | 1.22 | 92 | 1006.7 |
| 20260506145755 | 6 | 217 | 3.2 | 9.7 | 0.23 | 1.35 | 1.22 | 92 | 1006.8 |
| 20260506145019 | 6 | 354 | 1.6 | 11.3 | 0.23 | 1.35 | 1.19 | 91 | 1006.7 |
| 20260506144753 | 6 | 237 | 4.8 | 14.5 | 0.23 | 1.35 | 1.19 | 91 | 1006.8 |
| 20260506144253 | 7 | 247 | 3.2 | 14.5 | 0.23 | 1.35 | 1.17 | 91 | 1006.9 |
| 20260506144004 | 7 | 279 | 6.4 | 11.3 | 0.20 | 1.35 | 1.12 | 91 | 1006.9 |
| 20260506143019 | 7 | 78 | 3.2 | 9.7 | 0.18 | 1.35 | 1.07 | 91 | 1006.6 |
| 20260506142520 | 7 | 259 | 3.2 | 16.1 | 0.20 | 1.35 | 1.07 | 90 | 1006.5 |
| 20260506142020 | 7 | 290 | 4.8 | 16.1 | 0.18 | 1.35 | 1.04 | 90 | 1006.2 |
| 20260506141519 | 7 | 354 | 6.4 | 14.5 | 0.20 | 1.35 | 1.04 | 90 | 1005.9 |
| 20260506141019 | 8 | 319 | 3.2 | 14.5 | 0.20 | 1.35 | 1.02 | 90 | 1005.9 |
| 20260506140519 | 8 | 340 | 3.2 | 14.5 | 0.20 | 1.35 | 1.02 | 90 | 1005.8 |
| 20260506140256 | 8 | 54 | 4.8 | 14.5 | 0.20 | 1.35 | 0.99 | 89 | 1005.8 |
| 20260506135740 | 8 | 344 | 6.4 | 9.7 | 0.23 | 1.14 | 0.99 | 89 | 1005.7 |
| 20260506135019 | 9 | 55 | 3.2 | 9.7 | 0.20 | 1.14 | 0.97 | 89 | 1005.8 |
| 20260506134520 | 9 | 62 | 3.2 | 11.3 | 0.23 | 1.14 | 0.97 | 89 | 1005.9 |
| 20260506134019 | 10 | 348 | 4.8 | 14.5 | 0.25 | 1.14 | 0.94 | 89 | 1006.1 |
| 20260506133757 | 10 | 302 | 4.8 | 14.5 | 0.25 | 1.14 | 0.91 | 89 | 1006.0 |
| 20260506133019 | 11 | 292 | 6.4 | 14.5 | 0.25 | 1.14 | 0.89 | 89 | 1006.0 |
| 20260506132755 | 11 | 114 | 3.2 | 9.7 | 0.25 | 1.14 | 0.86 | 91 | 1006.1 |
| 20260506132020 | 12 | 30 | 6.4 | 9.7 | 0.30 | 1.14 | 0.84 | 92 | 1006.1 |
| 20260506131818 | 12 | 292 | 0.0 | 6.4 | 0.33 | 1.14 | 0.81 | 94 | 1006.0 |
| 20260506131812 | 12 | 165 | 1.6 | 6.4 | 0.30 | 1.14 | 0.84 | 93 | 1006.0 |
| 20260506130519 | 12 | 306 | 3.2 | 9.7 | 0.36 | 1.14 | 0.81 | 94 | 1005.9 |
| 20260506130020 | 12 | 248 | 3.2 | 14.5 | 0.36 | 1.14 | 0.79 | 94 | 1005.9 |
| 20260506125519 | 12 | 185 | 8.0 | 14.5 | 0.36 | 0.79 | 0.76 | 94 | 1005.9 |
| 20260506125019 | 12 | 274 | 6.4 | 14.5 | 0.38 | 0.79 | 0.76 | 94 | 1005.9 |
| 20260506124520 | 12 | 199 | 9.7 | 22.5 | 0.36 | 0.79 | 0.74 | 94 | 1006.1 |
| 20260506124021 | 12 | 204 | 6.4 | 22.5 | 0.33 | 0.79 | 0.69 | 94 | 1006.1 |
| 20260506123519 | 12 | 173 | 6.4 | 20.9 | 0.30 | 0.79 | 0.66 | 94 | 1006.2 |
| 20260506123020 | 12 | 227 | 9.7 | 20.9 | 0.30 | 0.79 | 0.64 | 94 | 1006.2 |
| 20260506122519 | 12 | 204 | 8.0 | 22.5 | 0.28 | 0.79 | 0.61 | 94 | 1006.1 |
| 20260506122020 | 12 | 210 | 8.0 | 22.5 | 0.23 | 0.79 | 0.56 | 94 | 1006.0 |
| 20260506121520 | 12 | 231 | 9.7 | 17.7 | 0.20 | 0.79 | 0.53 | 94 | 1006.4 |
| 20260506121019 | 12 | 206 | 8.0 | 20.9 | 0.18 | 0.79 | 0.48 | 94 | 1006.2 |
| 20260506120519 | 12 | 206 | 9.7 | 20.9 | 0.15 | 0.79 | 0.46 | 94 | 1006.2 |
| 20260506120037 | 12 | 206 | 6.4 | 14.5 | 0.10 | 0.66 | 0.41 | 94 | 1005.9 |
| 20260506120031 | 12 | 252 | 8.0 | 19.3 | 0.13 | 0.79 | 0.43 | 94 | 1006.1 |
| 20260506115019 | 12 | 169 | 4.8 | 16.1 | 0.08 | 0.66 | 0.38 | 94 | 1005.8 |
| 20260506114519 | 12 | 209 | 9.7 | 17.7 | 0.10 | 0.66 | 0.38 | 94 | 1005.8 |
| 20260506114019 | 12 | 196 | 6.4 | 17.7 | 0.08 | 0.66 | 0.36 | 94 | 1005.7 |
| 20260506113519 | 12 | 182 | 6.4 | 16.1 | 0.10 | 0.66 | 0.36 | 94 | 1005.7 |
| 20260506113019 | 12 | 186 | 8.0 | 16.1 | 0.08 | 0.66 | 0.33 | 94 | 1005.7 |
| 20260506112758 | 12 | 127 | 9.7 | 17.7 | 0.08 | 0.66 | 0.33 | 94 | 1005.7 |
| 20260506112020 | 12 | 200 | 8.0 | 24.1 | 0.10 | 0.66 | 0.33 | 94 | 1005.7 |
| 20260506111519 | 12 | 227 | 11.3 | 24.1 | 0.10 | 0.66 | 0.33 | 95 | 1005.7 |
| 20260506111019 | 12 | 206 | 11.3 | 19.3 | 0.08 | 0.66 | 0.30 | 95 | 1005.6 |
| 20260506110519 | 12 | 217 | 9.7 | 19.3 | 0.10 | 0.66 | 0.30 | 95 | 1005.7 |
| 20260506110019 | 12 | 212 | 11.3 | 24.1 | 0.10 | 0.66 | 0.30 | 95 | 1005.7 |
| 20260506105520 | 12 | 257 | 11.3 | 24.1 | 0.10 | 0.56 | 0.30 | 95 | 1005.5 |
| 20260506105019 | 12 | 238 | 9.7 | 25.7 | 0.10 | 0.56 | 0.30 | 95 | 1005.6 |
| 20260506104519 | 12 | 235 | 11.3 | 25.7 | 0.08 | 0.56 | 0.28 | 95 | 1005.5 |
| 20260506104019 | 12 | 176 | 12.9 | 25.7 | 0.08 | 0.56 | 0.28 | 95 | 1005.6 |
| 20260506103754 | 11 | 179 | 11.3 | 25.7 | 0.05 | 0.56 | 0.25 | 96 | 1005.7 |
| 20260506103020 | 11 | 204 | 12.9 | 22.5 | 0.08 | 0.56 | 0.25 | 95 | 1005.8 |
| 20260506102519 | 11 | 190 | 12.9 | 24.1 | 0.08 | 0.56 | 0.25 | 96 | 1005.9 |
| 20260506102257 | 11 | 209 | 12.9 | 24.1 | 0.05 | 0.56 | 0.23 | 96 | 1005.9 |
| 20260506101519 | 11 | 179 | 6.4 | 14.5 | 0.08 | 0.56 | 0.23 | 95 | 1005.9 |
| 20260506101019 | 11 | 240 | 6.4 | 11.3 | 0.08 | 0.56 | 0.23 | 95 | 1005.9 |
| 20260506100519 | 10 | 237 | 4.8 | 17.7 | 0.08 | 0.56 | 0.20 | 95 | 1005.8 |
| 20260506100019 | 10 | 248 | 6.4 | 17.7 | 0.08 | 0.56 | 0.20 | 95 | 1005.9 |
| 20260506095519 | 10 | 165 | 6.4 | 14.5 | 0.10 | 0.48 | 0.20 | 96 | 1005.8 |
| 20260506095019 | 10 | 166 | 9.7 | 14.5 | 0.10 | 0.48 | 0.20 | 96 | 1005.8 |
| 20260506094520 | 10 | 178 | 6.4 | 14.5 | 0.10 | 0.48 | 0.20 | 95 | 1005.8 |
| 20260506094020 | 10 | 176 | 4.8 | 8.0 | 0.10 | 0.48 | 0.20 | 95 | 1005.8 |
| 20260506093519 | 10 | 171 | 3.2 | 14.5 | 0.10 | 0.48 | 0.20 | 95 | 1005.9 |
| 20260506093019 | 10 | 133 | 6.4 | 16.1 | 0.10 | 0.48 | 0.18 | 95 | 1005.9 |
| 20260506092754 | 9 | 172 | 9.7 | 16.1 | 0.10 | 0.51 | 0.18 | 95 | 1006.1 |
| 20260506092019 | 9 | 186 | 0.0 | 1.6 | 0.10 | 0.51 | 0.18 | 94 | 1006.1 |
| 20260506091521 | 9 | 186 | 0.0 | 1.6 | 0.08 | 0.51 | 0.15 | 94 | 1006.0 |
| 20260506091018 | 9 | 186 | 0.0 | 1.6 | 0.10 | 0.51 | 0.15 | 94 | 1006.1 |
| 20260506090519 | 9 | 186 | 0.0 | 4.8 | 0.08 | 0.51 | 0.13 | 94 | 1006.4 |
| 20260506090039 | 9 | 186 | 0.0 | 11.3 | 0.05 | 0.43 | 0.10 | 94 | 1006.6 |
| 20260506090031 | 9 | 186 | 0.0 | 8.0 | 0.08 | 0.51 | 0.13 | 94 | 1006.4 |
| 20260506085019 | 8 | 186 | 4.8 | 11.3 | 0.05 | 0.43 | 0.10 | 94 | 1006.6 |
| 20260506084519 | 8 | 317 | 0.0 | 3.2 | 0.05 | 0.43 | 0.10 | 94 | 1006.6 |
| 20260506084019 | 8 | 317 | 1.6 | 4.8 | 0.05 | 0.43 | 0.10 | 93 | 1006.8 |
| 20260506083534 | 8 | 317 | 3.2 | 4.8 | 0.05 | 0.43 | 0.10 | 93 | 1006.9 |
| 20260506082519 | 8 | 171 | 0.0 | 0.0 | 0.03 | 0.43 | 0.08 | 94 | 1007.0 |
| 20260506082019 | 8 | 171 | 0.0 | 4.8 | 0.05 | 0.43 | 0.08 | 94 | 1007.0 |
| 20260506081533 | 8 | 171 | 0.0 | 4.8 | 0.05 | 0.43 | 0.08 | 94 | 1006.9 |
| 20260506080518 | 8 | 100 | 3.2 | 4.8 | 0.03 | 0.43 | 0.05 | 94 | 1006.8 |
| 20260506073019 | 8 | 71 | 1.6 | 6.4 | 0.03 | 0.41 | 0.05 | 93 | 1006.9 |
| 20260506072518 | 8 | 71 | 0.0 | 6.4 | 0.03 | 0.41 | 0.03 | 93 | 1007.0 |
| 20260506072019 | 8 | 61 | 0.0 | 14.5 | 0.00 | 0.41 | 0.03 | 93 | 1007.0 |
| 20260506071519 | 8 | 197 | 1.6 | 17.7 | 0.03 | 0.41 | 0.03 | 93 | 1006.9 |
| 20260506071018 | 8 | 93 | 12.9 | 17.7 | 0.03 | 0.41 | 0.03 | 92 | 1006.7 |
| 20260506070518 | 8 | 100 | 12.9 | 17.7 | 0.03 | 0.41 | 0.03 | 92 | 1006.8 |